Seretse Khama, Botswana

6:10 PM CAT on September 28, 2016 (GMT +0200)
Sir Seretse Khama International

Weather History for FBSK - December, 2013

Change the Weather History Date:

Sunday, December 1, 2013

  Actual Average Record
Temperature  
Mean Temperature 78 °F -  
Max Temperature 87 °F 85 °F 95 °F (2002)
Min Temperature 66 °F 64 °F 48 °F (2003)
Cooling Degree Days 12    
Growing Degree Days 28 (Base 50)    
Moisture  
Dew Point 59 °F    
Average Humidity 61    
Maximum Humidity 88    
Minimum Humidity 33    
Precipitation  
Precipitation 0.00 in - - ()
Sea Level Pressure  
Sea Level Pressure 30.07 in    
Wind  
Wind Speed 11 mph ()    
Max Wind Speed 21 mph    
Max Gust Speed 30 mph    
Visibility 6.2 miles    
Events Rain , Thunderstorm    
Averages and records for this station are not official NWS values.
T = Trace of Precipitation, MM = Missing Value Source: Averaged Metar Reports

Daily Weather History Graph

Daily Weather History Graph

Search for Another Location

Airport or City:

Trip Planner

Search our weather history database for the weather conditions in past years. The results will help you decide how hot, cold, wet, or windy it might be!

Date:

Astronomy

Dec. 01, 2013 Rise Set
Actual Time 5:19 AM CAT 6:51 PM CAT
Civil Twilight 4:53 AM CAT 7:17 PM CAT
Nautical Twilight 4:23 AM CAT 7:47 PM CAT
Astronomical Twilight 3:52 AM CAT 8:18 PM CAT
Moon 3:50 AM CAT (12/1) 5:19 PM CAT (12/1)
Length of Visible Light 14h 23m
Length of Day
13h 32m
Waning Crescent, 4% of the Moon is Illuminated
Dec 1
Waning Crescent
Dec 3
New
Dec 9
First Quarter
Dec 17
Full
Dec 25
Last Quarter

Hourly Weather History & Observations

Time (CAT) Temp. Heat Index Dew Point Humidity Pressure Visibility Wind Dir Wind Speed Gust Speed Precip Events Conditions
12:00 AM 77.0 °F - 57.2 °F 50% 30.06 in 6.2 mi WSW 10.4 mph - N/A Rain , Thunderstorm Light Thunderstorms and Rain
1:00 AM 68.0 °F - 62.6 °F 83% 30.04 in 6.2 mi SSW 12.7 mph - N/A Rain , Thunderstorm Light Thunderstorms and Rain
2:00 AM 68.0 °F - 60.8 °F 78% 30.01 in 6.2 mi SSW 9.2 mph - N/A Rain , Thunderstorm Light Thunderstorms and Rain
3:00 AM 68.0 °F - 64.4 °F 88% 30.01 in 6.2 mi ENE 3.5 mph - N/A Thunderstorm Thunderstorm
4:00 AM 68.0 °F - 60.8 °F 78% 30.04 in 6.2 mi North 12.7 mph - N/A Thunderstorm Thunderstorm
5:00 AM 68.0 °F - 60.8 °F 78% 30.04 in 6.2 mi ENE 10.4 mph - N/A   Overcast
6:00 AM 68.0 °F - 62.6 °F 83% 30.04 in 6.2 mi NE 4.6 mph - N/A Rain , Thunderstorm Light Thunderstorms and Rain
7:00 AM 68.0 °F - 62.6 °F 83% 30.04 in 6.2 mi East 12.7 mph - N/A Thunderstorm Thunderstorm
8:00 AM 69.8 °F - 60.8 °F 73% 30.04 in 6.2 mi SE 16.1 mph - N/A Thunderstorm Thunderstorm
9:00 AM 71.6 °F - 62.6 °F 73% 30.09 in 6.2 mi ENE 6.9 mph - N/A Thunderstorm Thunderstorm
10:00 AM 75.2 °F - 60.8 °F 61% 30.12 in 6.2 mi ENE 12.7 mph - N/A   Scattered Clouds
11:00 AM 78.8 °F - 60.8 °F 54% 30.12 in - NE 12.7 mph - N/A   Clear
12:00 PM 82.4 °F 82.0 °F 57.2 °F 42% 30.09 in 6.2 mi ENE 15.0 mph - N/A   Partly Cloudy
1:00 PM 84.2 °F 83.0 °F 55.4 °F 37% 30.06 in 6.2 mi ENE 19.6 mph - N/A   Partly Cloudy
2:00 PM 86.0 °F 84.9 °F 57.2 °F 37% 30.04 in 6.2 mi ENE 20.7 mph - N/A   Scattered Clouds
3:00 PM 87.8 °F 86.1 °F 55.4 °F 33% 30.01 in 6.2 mi NE 17.3 mph - N/A   Scattered Clouds
4:00 PM 87.8 °F 86.1 °F 55.4 °F 33% 29.98 in 6.2 mi NNE 18.4 mph 29.9 mph N/A   Scattered Clouds
5:00 PM 86.0 °F 84.2 °F 53.6 °F 33% 29.98 in 6.2 mi NE 18.4 mph - N/A   Partly Cloudy
6:00 PM 82.4 °F 81.4 °F 53.6 °F 37% 29.98 in 6.2 mi NE 19.6 mph - N/A   Scattered Clouds
7:00 PM 80.6 °F 80.5 °F 55.4 °F 42% 30.06 in 6.2 mi NNE 12.7 mph - N/A Thunderstorm Thunderstorm
8:00 PM 80.6 °F 80.8 °F 57.2 °F 45% 30.12 in 6.2 mi NNW 8.1 mph - N/A   Scattered Clouds
9:00 PM 71.6 °F - 62.6 °F 73% 30.18 in 6.2 mi West 13.8 mph - N/A Thunderstorm Thunderstorm
10:00 PM 68.0 °F - 64.4 °F 88% 30.21 in 6.2 mi West 15.0 mph - N/A Rain , Thunderstorm Light Thunderstorms and Rain
11:00 PM 66.2 °F - 62.6 °F 88% 30.21 in 6.2 mi WSW 12.7 mph - N/A Rain , Thunderstorm Thunderstorms and Rain